Volver al catálogo

STARLINK-33955

ActivoComunicacionesVLEO
NORAD 63902·PAYLOAD·🇺🇸 United States

Lanzado May 10, 2025 desde Cape Canaveral Space Force Station

Loading…

Próximos Pases (próximas 24 horas)

TLE

ActualizadoSource: CelesTrak SupGP

Época: Sep 14, 2026, 22:40 UTC

1 63902C 25095N   26257.94493056 -.00027112  00000+0 -98144-3 0  2573
2 63902  43.0024 187.0295 0001523 270.7217 185.3372 15.27610121    10

Sigue STARLINK-33955 en tiempo real con AllMySat

Download on the App Store